This is the latest recevied weather packets stored in our database for station/object KE8WMS. If no packets are shown the sender has not sent any weather packets the latest 10 day(s).
| Time | Temp. | Humidity | Pressure | Rain* | Wind** | Luminosity | Snow |
|---|---|---|---|---|---|---|---|
| 1778090815 | 11.67° C | 73% | 1009.4 hPa | 0 mm | - | 653 W/m² | - |
| 1778090511 | 11.11° C | 78% | 1009.4 hPa | 0 mm | - | 796 W/m² | - |
| 1778090208 | 11.11° C | 74% | 1009.2 hPa | 0 mm | - | 626 W/m² | - |
| 1778089905 | 10.56° C | 74% | 1009.3 hPa | 0 mm | - | 864 W/m² | - |
| 1778089603 | 10.56° C | 76% | 1009.3 hPa | 0 mm | - | 901 W/m² | - |
| 1778089299 | 10.56° C | 76% | 1009.1 hPa | 0 mm | - | 616 W/m² | - |
| 1778088998 | 10° C | 78% | 1009.1 hPa | 0 mm | - | 817 W/m² | - |
| 1778088694 | 10° C | 78% | 1008.9 hPa | 0 mm | - | 490 W/m² | - |
| 1778088391 | 10.56° C | 78% | 1009 hPa | 0 mm | - | 507 W/m² | - |
| 1778088087 | 10° C | 78% | 1009.5 hPa | 0 mm | - | 676 W/m² | - |
| 1778087785 | 10.56° C | 77% | 1009.8 hPa | 0 mm | - | 742 W/m² | - |
| 1778087483 | 10.56° C | 76% | 1009.8 hPa | 0 mm | - | 631 W/m² | - |
| 1778087180 | 10.56° C | 77% | 1009.8 hPa | 0 mm | - | 508 W/m² | - |
| 1778086877 | 11.11° C | 75% | 1009.9 hPa | 0 mm | - | 872 W/m² | - |
| 1778086576 | 10° C | 78% | 1009.8 hPa | 0 mm | - | 474 W/m² | - |
| 1778086271 | 10.56° C | 76% | 1009.9 hPa | 0 mm | - | 783 W/m² | - |
| 1778085969 | 10.56° C | 78% | 1009.7 hPa | 0 mm | - | 838 W/m² | - |
| 1778085666 | 10.56° C | 78% | 1009.2 hPa | 0 mm | - | 777 W/m² | - |
| 1778085361 | 10.56° C | 75% | 1009.5 hPa | 0 mm | - | 769 W/m² | - |
| 1778085058 | 10° C | 77% | 1009.3 hPa | 0 mm | - | 765 W/m² | - |
| 1778084754 | 9.44° C | 78% | 1009.2 hPa | 0 mm | - | 763 W/m² | - |
| 1778084451 | 9.44° C | 77% | 1009.4 hPa | 0 mm | - | 775 W/m² | - |
| 1778084149 | 10° C | 79% | 1009.3 hPa | 0 mm | - | 746 W/m² | - |
| 1778083846 | 10.56° C | 78% | 1009 hPa | 0 mm | - | 712 W/m² | - |
| 1778083544 | 10° C | 79% | 1009 hPa | 0 mm | - | 832 W/m² | - |
* Rain latest hour (hover to see other rain measurements)
** Current wind speed in m/s (hover to see current wind gust speed)